This demonstration page uses our WeatherBlox Daily Observations layout. Learn more.

Left ArrowRight Arrow

38.20091, -84.87328

Hourly Observations for June 25, 2021

Temp ( °F °C ) Dew Point ( °F °C ) Humidity (%) Winds ( mph kmh ) Pressure ( in mb ) Visibility ( mi km ) Precip ( " mm )
12:53 am 00:53 Clear 73 22.8 63 17.2 71 71 SSE 7 11 30.07 1018 10 16 0.00 0.00
1:53 am 01:53 Mostly Cloudy 75 23.9 63 17.2 66 66 S 7 11 30.08 1019 10 16 0.00 0.00
2:53 am 02:53 Mostly Clear 75 23.9 64 17.8 69 69 S 7 11 30.07 1018 10 16 0.00 0.00
3:53 am 03:53 Mostly Clear 74 23.3 65 18.3 74 74 SSW 6 9 30.08 1019 10 16 0.00 0.00
4:53 am 04:53 Clear 74 23.3 65 18.3 74 74 S 7 11 30.10 1019 10 16 0.00 0.00
5:53 am 05:53 Clear 73 22.8 65 18.3 76 76 SSE 7 11 30.09 1019 10 16 0.00 0.00
6:53 am 06:53 Sunny 72 22.2 65 18.3 79 79 S 8 13 30.09 1019 10 16 0.00 0.00
7:53 am 07:53 Sunny 73 22.8 65 18.3 76 76 S 9 15 30.10 1019 10 16 0.00 0.00
8:53 am 08:53 Mostly Cloudy 74 23.3 66 18.9 76 76 S 9 15 30.11 1020 10 16 0.00 0.00
9:53 am 09:53 Cloudy 76 24.4 65 18.3 69 69 SSW 15 24 30.12 1020 10 16 0.00 0.00
10:53 am 10:53 Cloudy 77 25 66 18.9 69 69 S 15 24 30.12 1020 10 16 0.00 0.00
11:25 am 11:25 Mostly Cloudy 80 26.7 67 19.4 64 64 SSW 15 24 30.10 1019 10 16 0.00 0.00
11:53 am 11:53 Cloudy 79 26.1 67 19.4 67 67 SSW 17 28 30.12 1020 10 16 0.00 0.00
12:35 pm 12:35 Mostly Cloudy 80 26.7 68 20 67 67 SSW 12 19 30.10 1019 10 16 0.00 0.00
12:53 pm 12:53 Cloudy 81 27.2 68 20 65 65 S 15 24 30.11 1020 10 16 0.00 0.00
1:53 pm 13:53 Partly Cloudy 81 27.2 68 20 65 65 S 14 22 30.09 1019 10 16 0.00 0.00
2:53 pm 14:53 Mostly Sunny 81 27.2 69 20.6 67 67 SSW 10 17 30.07 1018 10 16 0.00 0.00
3:53 pm 15:53 Partly Cloudy 84 28.9 70 21.1 63 63 SSW 15 24 30.06 1018 10 16 0.00 0.00
5:53 pm 17:53 Sunny 83 28.3 70 21.1 65 65 S 12 19 30.04 1017 10 16 0.00 0.00
6:53 pm 18:53 Sunny 83 28.3 69 20.6 63 63 S 12 19 30.01 1016 10 16 0.00 0.00
7:53 pm 19:53 Sunny 82 27.8 69 20.6 65 65 SSE 13 20 29.97 1015 10 16 0.00 0.00
8:53 pm 20:53 Sunny 81 27.2 68 20 65 65 S 10 17 29.98 1015 10 16 0.00 0.00
9:53 pm 21:53 Clear 79 26.1 68 20 69 69 S 8 13 30.00 1016 10 16 0.00 0.00
10:53 pm 22:53 Clear 77 25 68 20 74 74 S 5 7 30.01 1016 10 16 0.00 0.00
11:53 pm 23:53 Clear 73 22.8 68 20 84 84 S 3 6 30.04 1017 10 16 0.00 0.00

Powered by AerisWeather